FW3932 Weather Reports


time (UTC)temp
C
wind
direction
speed
KPH
gust
KPH
rain 1hr
cm
rain 24hr
cm
rain mn
cm
humidity
%
barometer
mb
20260503175507 15 158 1.6 16.1 0.00 0.00 0.00 73 1013.0
20260503175008 14 151 8.0 20.9 0.00 0.00 0.00 72 1013.0
20260503174520 14 229 9.7 20.9 0.00 0.00 0.00 72 1013.0
20260503174006 14 121 4.8 17.7 0.00 0.00 0.00 75 1013.0
20260503173507 13 203 8.0 17.7 0.00 0.00 0.00 73 1012.9
20260503173022 13 178 3.2 16.1 0.00 0.00 0.00 75 1012.8
20260503172504 14 159 8.0 16.1 0.00 0.00 0.00 74 1012.8
20260503172007 14 190 3.2 19.3 0.00 0.00 0.00 72 1012.8
20260503171527 15 162 6.4 19.3 0.00 0.00 0.00 72 1012.7
20260503171008 15 298 0.0 11.3 0.00 0.00 0.00 73 1012.6
20260503170507 14 179 3.2 11.3 0.00 0.00 0.00 73 1012.6
20260503151003 12 29 4.8 11.3 0.00 0.00 0.00 78 1012.3
20260503150506 12 248 1.6 19.3 0.00 0.00 0.00 78 1012.2
20260503131005 11 306 1.6 16.1 0.00 0.00 0.00 80 1010.7
20260503130506 11 178 1.6 16.1 0.00 0.00 0.00 81 1010.6
20260503110506 11 167 0.0 11.3 0.00 0.00 0.00 82 1010.7
20260503090505 11 180 1.6 12.9 0.00 0.00 0.00 82 1010.8
20260503081539 11 289 0.0 11.3 0.00 0.00 0.00 83 1011.1
20260503081004 11 244 1.6 11.3 0.00 0.00 0.00 83 1011.2
20260503080504 11 295 1.6 8.0 0.00 0.00 0.00 83 1011.2
20260503072507 11 283 3.2 12.9 0.00 0.00 0.00 83 1011.5
20260503072007 11 249 1.6 11.3 0.00 0.00 0.00 83 1011.5
20260503071533 11 247 1.6 11.3 0.00 0.00 0.00 83 1011.5
20260503071008 11 169 0.0 9.7 0.00 0.00 0.00 83 1011.5
20260503070508 11 292 1.6 11.3 0.00 0.00 0.00 83 1011.5
20260503055003 11 284 8.0 14.5 0.00 0.00 0.00 82 1011.9
20260503054530 11 329 4.8 12.9 0.00 0.00 0.00 82 1012.0
20260503054004 11 317 1.6 12.9 0.00 0.00 0.00 82 1012.0
20260503053506 11 251 1.6 14.5 0.00 0.00 0.00 82 1012.1
20260503053014 11 307 3.2 14.5 0.00 0.00 0.00 82 1012.2
20260503052503 11 63 1.6 19.3 0.00 0.00 0.00 82 1012.1
20260503052010 11 300 6.4 19.3 0.00 0.00 0.00 82 1012.1
20260503051521 11 240 1.6 11.3 0.00 0.00 0.00 82 1012.2
20260503051003 11 260 1.6 8.0 0.00 0.00 0.00 82 1012.2
20260503050504 11 182 1.6 8.0 0.00 0.00 0.00 82 1012.2
20260503050014 11 277 1.6 8.0 0.00 0.00 0.00 82 1012.2
20260503045504 11 171 0.0 8.0 0.00 0.00 0.00 82 1012.2
20260503045005 11 214 1.6 11.3 0.00 0.00 0.00 81 1012.2
20260503044514 11 327 3.2 14.5 0.00 0.00 0.00 81 1012.1
20260503044007 11 303 1.6 14.5 0.00 0.00 0.00 82 1012.1
20260503043505 11 329 1.6 11.3 0.00 0.00 0.00 82 1012.0
20260503043023 11 340 0.0 11.3 0.00 0.00 0.00 82 1011.9
20260503042508 11 279 0.0 9.7 0.00 0.00 0.00 82 1011.8
20260503042004 11 101 0.0 11.3 0.00 0.00 0.00 82 1011.8
20260503041527 11 201 3.2 14.5 0.00 0.00 0.00 82 1011.7
20260503041003 11 223 4.8 16.1 0.00 0.00 0.00 82 1011.8
20260503040503 11 310 3.2 17.7 0.00 0.00 0.00 81 1011.7
20260503040016 11 322 4.8 17.7 0.00 0.00 0.00 81 1011.6
20260503035504 11 132 3.2 12.9 0.00 0.00 0.00 81 1011.6
20260503035008 11 144 1.6 11.3 0.00 0.00 0.00 81 1011.6
20260503034511 11 189 0.0 11.3 0.00 0.00 0.00 81 1011.5
20260503034005 11 213 1.6 8.0 0.00 0.00 0.00 81 1011.4
20260503033505 12 129 1.6 8.0 0.00 0.00 0.00 81 1011.3
20260503033022 12 280 1.6 9.7 0.00 0.00 0.00 80 1011.2
20260503032502 12 187 1.6 16.1 0.00 0.00 0.00 80 1011.2
20260503032009 12 205 1.6 17.7 0.00 0.00 0.00 80 1011.1
20260503031525 12 112 3.2 17.7 0.00 0.00 0.00 79 1011.1
20260503031007 12 174 1.6 19.3 0.00 0.00 0.00 79 1011.0
20260503030504 12 222 3.2 19.3 0.00 0.00 0.00 79 1011.1
20260503030021 12 211 1.6 19.3 0.00 0.00 0.00 78 1011.0
20260503025506 12 165 8.0 19.3 0.00 0.00 0.00 78 1010.9
20260503025003 12 294 6.4 16.1 0.00 0.00 0.00 77 1010.9
20260503024515 12 286 6.4 16.1 0.00 0.00 0.00 77 1010.9
20260503024011 12 301 6.4 22.5 0.00 0.00 0.00 77 1010.9
20260503023506 12 272 6.4 22.5 0.00 0.00 0.00 76 1010.8
20260503023015 12 294 3.2 20.9 0.00 0.00 0.00 75 1010.8
20260503022506 13 124 3.2 20.9 0.00 0.00 0.00 75 1010.7
20260503022007 13 244 8.0 20.9 0.00 0.00 0.00 75 1010.8
20260503021514 13 272 6.4 20.9 0.00 0.00 0.00 74 1010.7
20260503021007 13 308 9.7 20.9 0.00 0.00 0.00 74 1010.8
20260503020511 13 281 6.4 20.9 0.00 0.00 0.00 74 1010.8
20260503020026 13 331 11.3 20.9 0.00 0.00 0.00 73 1010.7
20260503015506 14 285 11.3 22.5 0.00 0.00 0.00 73 1010.7
20260503015006 14 321 12.9 24.1 0.00 0.00 0.00 72 1010.7
20260503014521 14 294 11.3 24.1 0.00 0.00 0.00 72 1010.8
20260503014006 14 244 4.8 22.5 0.00 0.00 0.00 71 1010.8
20260503013507 15 311 9.7 22.5 0.00 0.00 0.00 71 1010.8
20260503013031 15 307 8.0 22.5 0.00 0.00 0.00 70 1010.8
20260503012509 15 317 8.0 19.3 0.00 0.00 0.00 70 1010.8
20260503012007 15 293 1.6 19.3 0.00 0.00 0.00 70 1010.8
20260503011518 15 215 4.8 19.3 0.00 0.00 0.00 69 1010.8
20260503011009 16 200 3.2 14.5 0.00 0.00 0.00 69 1010.8
20260503010506 16 306 8.0 19.3 0.00 0.00 0.00 68 1010.9
20260503010018 16 302 6.4 20.9 0.00 0.00 0.00 68 1010.9
20260503005508 16 302 9.7 20.9 0.00 0.00 0.00 67 1010.9
20260503005007 16 318 6.4 19.3 0.00 0.00 0.00 68 1011.0
20260503004515 16 138 8.0 20.9 0.00 0.00 0.00 67 1011.0
20260503004007 16 355 11.3 22.5 0.00 0.00 0.00 66 1010.9
20260503003505 16 279 6.4 22.5 0.00 0.00 0.00 66 1010.9
20260503003036 16 315 12.9 22.5 0.00 0.00 0.00 66 1011.0
20260503002506 17 296 8.0 22.5 0.00 0.00 0.00 65 1010.9
20260503002004 17 305 6.4 20.9 0.00 0.00 0.00 65 1011.0
20260503001528 17 299 8.0 25.7 0.00 0.00 0.00 65 1011.0
20260503001004 17 312 9.7 25.7 0.00 0.00 0.00 64 1010.9
20260503000509 17 247 8.0 25.7 0.00 0.00 0.00 64 1010.9
20260503000028 17 323 11.3 22.5 0.00 0.00 0.00 62 1010.9
20260502235505 18 290 6.4 22.5 0.00 0.00 0.00 63 1011.0
20260502235006 17 263 12.9 29.0 0.00 0.00 0.00 63 1011.0
20260502234532 17 240 3.2 29.0 0.00 0.00 0.00 65 1011.0
20260502234006 18 262 11.3 20.9 0.00 0.00 0.00 62 1011.0
20260502233511 18 248 9.7 20.9 0.00 0.00 0.00 62 1011.1
20260502233021 18 297 4.8 19.3 0.00 0.00 0.00 63 1011.0
20260502232507 18 296 4.8 25.7 0.00 0.00 0.00 62 1011.2
20260502232011 18 254 11.3 30.6 0.00 0.00 0.00 62 1011.2
20260502231525 18 290 16.1 30.6 0.00 0.00 0.00 60 1011.2
20260502231007 19 296 6.4 22.5 0.00 0.00 0.00 59 1011.2
20260502230510 19 150 4.8 27.4 0.00 0.00 0.00 60 1011.2
20260502230018 18 24 4.8 27.4 0.00 0.00 0.00 61 1011.3
20260502225505 18 311 14.5 27.4 0.00 0.00 0.00 60 1011.3
20260502225009 19 271 6.4 27.4 0.00 0.00 0.00 61 1011.4
20260502224530 19 294 11.3 24.1 0.00 0.00 0.00 60 1011.4
20260502224008 18 282 6.4 29.0 0.00 0.00 0.00 62 1011.6
20260502223507 18 304 8.0 29.0 0.00 0.00 0.00 60 1011.6
20260502223027 19 124 6.4 20.9 0.00 0.00 0.00 60 1011.5
20260502222507 20 178 4.8 22.5 0.00 0.00 0.00 60 1011.6
20260502222006 20 287 8.0 22.5 0.00 0.00 0.00 58 1011.5
20260502221528 20 26 6.4 20.9 0.00 0.00 0.00 57 1011.8
20260502221008 20 5 6.4 20.9 0.00 0.00 0.00 58 1011.8
20260502220509 20 309 3.2 25.7 0.00 0.00 0.00 61 1011.8
20260502220026 19 161 6.4 27.4 0.00 0.00 0.00 60 1011.8
20260502215507 19 294 8.0 27.4 0.00 0.00 0.00 60 1011.9
20260502215011 19 288 8.0 25.7 0.00 0.00 0.00 61 1011.9
20260502214522 19 335 4.8 27.4 0.00 0.00 0.00 61 1012.0
20260502214009 20 340 9.7 29.0 0.00 0.00 0.00 59 1012.0
20260502213511 19 296 9.7 29.0 0.00 0.00 0.00 60 1011.9
20260502213035 20 155 6.4 24.1 0.00 0.00 0.00 59 1011.8
20260502212509 19 311 3.2 24.1 0.00 0.00 0.00 62 1011.9
20260502212011 20 306 3.2 22.5 0.00 0.00 0.00 60 1012.1
20260502211522 20 149 6.4 20.9 0.00 0.00 0.00 62 1012.2
20260502211003 19 306 4.8 20.9 0.00 0.00 0.00 64 1012.1
20260502210503 19 211 8.0 20.9 0.00 0.00 0.00 63 1012.3
20260502210013 18 213 6.4 19.3 0.00 0.00 0.00 64 1012.3
20260502205502 17 207 6.4 24.1 0.00 0.00 0.00 64 1012.4
20260502205008 18 188 12.9 24.1 0.00 0.00 0.00 64 1012.4
20260502204507 18 283 3.2 16.1 0.00 0.00 0.00 64 1012.6
20260502204006 17 189 4.8 22.5 0.00 0.00 0.00 69 1012.7
20260502203506 17 51 3.2 22.5 0.00 0.00 0.00 67 1012.8
20260502203006 17 169 8.0 19.3 0.00 0.00 0.00 66 1012.8
20260502202504 17 317 4.8 22.5 0.00 0.00 0.00 68 1012.8
20260502202005 17 173 9.7 22.5 0.00 0.00 0.00 68 1012.9
20260502201523 17 229 6.4 20.9 0.00 0.00 0.00 69 1013.0
20260502201005 17 212 4.8 22.5 0.00 0.00 0.00 69 1013.1
20260502200506 17 295 1.6 25.7 0.00 0.00 0.00 69 1012.9
20260502200007 17 163 6.4 29.0 0.00 0.00 0.00 69 1012.9
20260502195502 16 351 3.2 29.0 0.00 0.00 0.00 70 1013.0
20260502195002 16 148 9.7 20.9 0.00 0.00 0.00 70 1013.0
20260502194503 17 205 4.8 27.4 0.00 0.00 0.00 68 1012.9
20260502194006 17 221 9.7 27.4 0.00 0.00 0.00 68 1012.9
20260502193503 17 238 8.0 22.5 0.00 0.00 0.00 67 1012.9
20260502193016 17 338 3.2 16.1 0.00 0.00 0.00 69 1012.9
20260502192505 17 305 3.2 24.1 0.00 0.00 0.00 68 1012.9
20260502192002 17 250 8.0 25.7 0.00 0.00 0.00 70 1012.9
20260502191513 16 173 9.7 25.7 0.00 0.00 0.00 69 1013.1
20260502191003 16 219 6.4 24.1 0.00 0.00 0.00 69 1013.0
20260502190504 17 180 8.0 25.7 0.00 0.00 0.00 69 1013.0
20260502190008 17 187 1.6 25.7 0.00 0.00 0.00 70 1013.0
20260502185503 17 319 1.6 32.2 0.00 0.00 0.00 69 1013.1
20260502185011 17 194 12.9 32.2 0.00 0.00 0.00 69 1013.0
20260502184519 16 227 8.0 22.5 0.00 0.00 0.00 69 1013.1
20260502184002 16 162 8.0 24.1 0.00 0.00 0.00 70 1013.0
20260502183507 16 119 1.6 25.7 0.00 0.00 0.00 72 1013.0
20260502183017 16 170 9.7 25.7 0.00 0.00 0.00 69 1013.0
20260502182503 16 216 4.8 19.3 0.00 0.00 0.00 69 1012.9
20260502182006 16 53 3.2 12.9 0.00 0.00 0.00 69 1012.9
20260502181513 16 215 3.2 19.3 0.00 0.00 0.00 69 1012.9
20260502181007 16 163 6.4 25.7 0.00 0.00 0.00 69 1012.9
20260502180503 16 352 11.3 25.7 0.00 0.00 0.00 69 1012.9